This is the latest recevied weather packets stored in our database for station/object CE3PA-5. If no packets are shown the sender has not sent any weather packets the latest 10 day(s).
| Time | Temp. | Humidity | Pressure | Rain* | Wind** | Luminosity | Snow |
|---|---|---|---|---|---|---|---|
| 1777574442 | 26.11° C | 18% | 752.8 hPa | - | - | - | - |
| 1777571742 | 24.44° C | 19% | 752.9 hPa | - | - | - | - |
| 1777569045 | 22.78° C | 19% | 753.2 hPa | - | - | - | - |
| 1777568145 | 22.78° C | 19% | 753.2 hPa | - | - | - | - |
| 1777567244 | 23.33° C | 18% | 753.3 hPa | - | - | - | - |
| 1777563644 | 21.11° C | 18% | 753.4 hPa | - | - | - | - |
| 1777562744 | 21.67° C | 18% | 753.3 hPa | - | - | - | - |
| 1777561843 | 22.78° C | 17% | 753.2 hPa | - | - | - | - |
| 1777560943 | 23.89° C | 17% | 753.1 hPa | - | - | - | - |
| 1777560043 | 26.11° C | 16% | 752.9 hPa | - | - | - | - |
| 1777559143 | 26.11° C | 17% | 752.7 hPa | - | - | - | - |
| 1777558243 | 24.44° C | 17% | 752.6 hPa | - | - | - | - |
| 1777557343 | 23.33° C | 17% | 752.6 hPa | - | - | - | - |
| 1777556444 | 21.67° C | 18% | 752.5 hPa | - | - | - | - |
| 1777555543 | 20° C | 18% | 752.4 hPa | - | - | - | - |
| 1777554642 | 17.78° C | 19% | 752.5 hPa | - | - | - | - |
| 1777553742 | 15.56° C | 19% | 752.4 hPa | - | - | - | - |
| 1777552842 | 12.78° C | 20% | 752.6 hPa | - | - | - | - |
| 1777551942 | 10° C | 21% | 752.6 hPa | - | - | - | - |
| 1777551041 | 7.22° C | 21% | 752.6 hPa | - | - | - | - |
| 1777550141 | 6.67° C | 21% | 752.6 hPa | - | - | - | - |
| 1777549245 | 6.67° C | 21% | 752.5 hPa | - | - | - | - |
| 1777548344 | 6.67° C | 21% | 752.5 hPa | - | - | - | - |
| 1777547445 | 6.67° C | 21% | 752.4 hPa | - | - | - | - |
| 1777546544 | 6.67° C | 21% | 752.5 hPa | - | - | - | - |
* Rain since midnight (hover to see other rain measurements)
** Current wind speed in m/s (hover to see current wind gust speed)